When you browse on this site, cookies collect data to enhance your experience and personalize the content and advertising you see.
Visit our Privacy Policy to learn more. By continuing to use the site, you agree to this use of cookies and data.
  • In United Kingdom
  • List of Countries
  • For 7 days
  • Water Temperature
  • Weather Map
  • Weather Widgets
  • user-avatar
    Login

    Hourly Weather Chiclayo

    Today, 20 September, Friday

    Time Temperature Precipitation Wind Pressure Humidity
    00:00 +17°C° 0 mm 3 mps 758 mmHg 87%
    01:00 +17°C° 0 mm 3 mps 758 mmHg 88%
    02:00 +17°C° 0 mm 3 mps 758 mmHg 89%
    03:00 +17°C° 0 mm 3 mps 757 mmHg 91%
    04:00 +17°C° 0 mm 3 mps 757 mmHg 92%
    05:00 +17°C° 0 mm 3 mps 758 mmHg 90%
    06:00 +17°C° 0 mm 3 mps 758 mmHg 88%
    07:00 +18°C° 0 mm 3 mps 758 mmHg 86%
    08:00 +19°C° 0 mm 4 mps 758 mmHg 79%
    09:00 +21°C° 0 mm 4 mps 758 mmHg 72%
    10:00 +22°C° 0 mm 4 mps 758 mmHg 65%
    11:00 +23°C° 0 mm 5 mps 757 mmHg 61%
    12:00 +25°C° 0 mm 5 mps 757 mmHg 57%
    13:00 +26°C° 0 mm 6 mps 756 mmHg 53%
    14:00 +24°C° 0 mm 6 mps 756 mmHg 55%
    15:00 +24°C° 0 mm 6 mps 756 mmHg 58%
    16:00 +23°C° 0 mm 6 mps 756 mmHg 61%
    17:00 +22°C° 0 mm 5 mps 757 mmHg 67%
    18:00 +20°C° 0 mm 5 mps 757 mmHg 73%
    19:00 +19°C° 0 mm 4 mps 758 mmHg 79%
    20:00 +19°C° 0 mm 4 mps 758 mmHg 80%
    21:00 +19°C° 0 mm 3 mps 759 mmHg 80%
    22:00 +19°C° 0 mm 3 mps 759 mmHg 81%
    23:00 +18°C° 0 mm 3 mps 759 mmHg 81%

    Tomorrow, 21 September, Saturday

    Time Temperature Precipitation Wind Pressure Humidity
    00:00 +18°C° 0 mm 3 mps 759 mmHg 82%
    01:00 +18°C° 0 mm 3 mps 759 mmHg 82%
    02:00 +18°C° 0 mm 3 mps 758 mmHg 83%
    03:00 +18°C° 0 mm 2 mps 758 mmHg 83%
    04:00 +18°C° 0 mm 2 mps 758 mmHg 84%
    05:00 +18°C° 0 mm 2 mps 758 mmHg 83%
    06:00 +18°C° 0 mm 2 mps 759 mmHg 83%
    07:00 +18°C° 0 mm 2 mps 759 mmHg 83%
    08:00 +20°C° 0 mm 2 mps 759 mmHg 75%
    09:00 +22°C° 0 mm 3 mps 759 mmHg 67%
    10:00 +25°C° 0 mm 4 mps 760 mmHg 59%
    11:00 +25°C° 0 mm 4 mps 759 mmHg 58%
    12:00 +25°C° 0 mm 5 mps 759 mmHg 57%
    13:00 +26°C° 0 mm 5 mps 758 mmHg 56%
    14:00 +25°C° 0 mm 5 mps 758 mmHg 59%
    15:00 +23°C° 0 mm 5 mps 758 mmHg 62%
    16:00 +22°C° 0 mm 5 mps 757 mmHg 65%
    17:00 +21°C° 0.1 mm 5 mps 758 mmHg 70%
    18:00 +20°C° 0.1 mm 5 mps 758 mmHg 75%
    19:00 +19°C° 0.1 mm 5 mps 759 mmHg 80%
    20:00 +19°C° 0.1 mm 5 mps 759 mmHg 81%
    21:00 +19°C° 0.1 mm 5 mps 759 mmHg 82%
    22:00 +19°C° 0.1 mm 5 mps 760 mmHg 83%
    23:00 +17°C° 0 mm 5 mps 759 mmHg 85%

    Day after tomorrow, 22 September, Sunday

    Time Temperature Precipitation Wind Pressure Humidity
    00:00 +18°C° 0 mm 4 mps 759 mmHg 86%
    01:00 +18°C° 0 mm 3 mps 759 mmHg 87%
    02:00 +18°C° 0 mm 3 mps 758 mmHg 88%
    03:00 +18°C° 0 mm 3 mps 758 mmHg 88%
    04:00 +17°C° 0 mm 3 mps 758 mmHg 88%
    05:00 +18°C° 0 mm 2 mps 759 mmHg 87%
    06:00 +18°C° 0 mm 2 mps 759 mmHg 85%
    07:00 +18°C° 0 mm 2 mps 760 mmHg 84%
    08:00 +19°C° 0 mm 2 mps 760 mmHg 78%
    09:00 +21°C° 0 mm 3 mps 760 mmHg 72%
    10:00 +22°C° 0 mm 3 mps 760 mmHg 67%
    11:00 +25°C° 0 mm 4 mps 759 mmHg 61%
    12:00 +26°C° 0 mm 5 mps 758 mmHg 55%
    13:00 +28°C° 0 mm 6 mps 758 mmHg 49%
    14:00 +27°C° 0 mm 6 mps 757 mmHg 52%
    15:00 +26°C° 0 mm 6 mps 757 mmHg 55%
    16:00 +24°C° 0 mm 7 mps 756 mmHg 57%
    17:00 +23°C° 0 mm 6 mps 757 mmHg 65%
    18:00 +21°C° 0 mm 5 mps 757 mmHg 73%
    19:00 +19°C° 0 mm 5 mps 758 mmHg 80%
    20:00 +19°C° 0 mm 4 mps 758 mmHg 81%
    21:00 +19°C° 0 mm 4 mps 759 mmHg 81%
    22:00 +19°C° 0 mm 4 mps 759 mmHg 82%
    23:00 +18°C° 0 mm 4 mps 759 mmHg 82%

    23 September, Monday

    Time Temperature Precipitation Wind Pressure Humidity
    00:00 +18°C° 0 mm 3 mps 759 mmHg 83%
    01:00 +18°C° 0 mm 3 mps 759 mmHg 84%
    02:00 +18°C° 0 mm 3 mps 759 mmHg 86%
    03:00 +17°C° 0 mm 2 mps 759 mmHg 89%
    04:00 +17°C° 0 mm 2 mps 759 mmHg 91%
    05:00 +17°C° 0 mm 2 mps 759 mmHg 90%
    06:00 +17°C° 0 mm 2 mps 759 mmHg 88%
    07:00 +18°C° 0 mm 2 mps 759 mmHg 87%
    08:00 +20°C° 0 mm 2 mps 759 mmHg 77%
    09:00 +23°C° 0 mm 2 mps 759 mmHg 68%
    10:00 +25°C° 0 mm 3 mps 759 mmHg 58%
    11:00 +26°C° 0 mm 4 mps 759 mmHg 55%
    12:00 +27°C° 0 mm 5 mps 758 mmHg 52%
    13:00 +28°C° 0 mm 6 mps 757 mmHg 49%
    14:00 +27°C° 0 mm 6 mps 757 mmHg 52%
    15:00 +26°C° 0 mm 6 mps 756 mmHg 55%
    16:00 +24°C° 0 mm 7 mps 756 mmHg 58%
    17:00 +22°C° 0 mm 6 mps 756 mmHg 64%
    18:00 +21°C° 0 mm 5 mps 757 mmHg 70%
    19:00 +19°C° 0 mm 5 mps 758 mmHg 77%
    20:00 +19°C° 0 mm 4 mps 758 mmHg 77%
    21:00 +19°C° 0 mm 4 mps 759 mmHg 78%
    22:00 +19°C° 0 mm 3 mps 759 mmHg 79%
    23:00 +19°C° 0 mm 3 mps 759 mmHg 81%

    24 September, Tuesday

    Time Temperature Precipitation Wind Pressure Humidity
    00:00 +18°C° 0 mm 3 mps 759 mmHg 82%
    01:00 +18°C° 0 mm 3 mps 759 mmHg 83%
    02:00 +18°C° 0 mm 3 mps 759 mmHg 84%
    03:00 +18°C° 0 mm 3 mps 759 mmHg 85%
    04:00 +18°C° 0 mm 2 mps 758 mmHg 86%
    05:00 +18°C° 0 mm 2 mps 759 mmHg 85%
    06:00 +18°C° 0 mm 2 mps 759 mmHg 83%
    07:00 +18°C° 0 mm 2 mps 759 mmHg 82%
    08:00 +21°C° 0 mm 2 mps 759 mmHg 72%
    09:00 +24°C° 0 mm 3 mps 759 mmHg 61%
    10:00 +27°C° 0 mm 3 mps 759 mmHg 51%
    11:00 +28°C° 0 mm 4 mps 759 mmHg 48%
    12:00 +29°C° 0 mm 5 mps 758 mmHg 46%
    13:00 +30°C° 0 mm 6 mps 758 mmHg 43%
    14:00 +28°C° 0 mm 6 mps 757 mmHg 47%
    15:00 +27°C° 0 mm 6 mps 757 mmHg 50%
    16:00 +26°C° 0 mm 6 mps 756 mmHg 54%
    17:00 +23°C° 0 mm 5 mps 757 mmHg 62%
    18:00 +21°C° 0 mm 4 mps 758 mmHg 69%
    19:00 +19°C° 0 mm 4 mps 758 mmHg 77%
    20:00 +19°C° 0 mm 4 mps 759 mmHg 78%
    21:00 +19°C° 0 mm 4 mps 760 mmHg 79%
    22:00 +19°C° 0 mm 4 mps 760 mmHg 80%
    23:00 +19°C° 0 mm 3 mps 760 mmHg 81%

    25 September, Wednesday

    Time Temperature Precipitation Wind Pressure Humidity
    00:00 +19°C° 0 mm 3 mps 760 mmHg 81%
    01:00 +18°C° 0 mm 3 mps 760 mmHg 82%
    02:00 +18°C° 0 mm 2 mps 759 mmHg 83%
    03:00 +18°C° 0 mm 2 mps 759 mmHg 85%
    04:00 +18°C° 0 mm 2 mps 759 mmHg 86%
    05:00 +18°C° 0 mm 2 mps 759 mmHg 85%
    06:00 +18°C° 0 mm 2 mps 759 mmHg 84%
    07:00 +18°C° 0 mm 2 mps 760 mmHg 83%
    08:00 +20°C° 0 mm 2 mps 760 mmHg 73%
    09:00 +24°C° 0 mm 2 mps 760 mmHg 63%
    10:00 +26°C° 0 mm 3 mps 759 mmHg 53%
    11:00 +27°C° 0 mm 4 mps 759 mmHg 51%
    12:00 +28°C° 0 mm 5 mps 758 mmHg 48%
    13:00 +29°C° 0 mm 6 mps 758 mmHg 45%
    14:00 +28°C° 0 mm 6 mps 757 mmHg 48%
    15:00 +27°C° 0 mm 6 mps 757 mmHg 51%
    16:00 +26°C° 0 mm 6 mps 757 mmHg 54%
    17:00 +23°C° 0 mm 5 mps 757 mmHg 62%
    18:00 +21°C° 0 mm 5 mps 757 mmHg 71%
    19:00 +19°C° 0 mm 4 mps 758 mmHg 79%
    20:00 +19°C° 0 mm 4 mps 758 mmHg 81%
    21:00 +18°C° 0 mm 4 mps 759 mmHg 82%
    22:00 +18°C° 0 mm 3 mps 759 mmHg 84%
    23:00 +18°C° 0 mm 3 mps 759 mmHg 85%
    Show more